TimePST,TemperatureF,Dew PointF,Humidity,Sea Level PressureIn,VisibilityMPH,Wind Direction,Wind SpeedMPH,Gust SpeedMPH,PrecipitationIn,Events,Conditions,WindDirDegrees,DateUTC
12:51 AM,64.9,41.0,42,29.96,10.0,Variable,4.6,-,N/A,,Clear,0,2014-02-20 08:51:00
1:51 AM,55.0,50.0,83,29.95,8.0,ESE,5.8,-,N/A,,Clear,110,2014-02-20 09:51:00
2:51 AM,54.0,50.0,86,29.96,7.0,NE,3.5,-,N/A,,Clear,50,2014-02-20 10:51:00
3:51 AM,53.1,50.0,89,29.96,6.0,East,4.6,-,N/A,,Clear,80,2014-02-20 11:51:00
4:51 AM,52.0,48.9,89,29.96,5.0,East,4.6,-,N/A,,Clear,80,2014-02-20 12:51:00
5:51 AM,52.0,48.9,89,29.96,5.0,Calm,Calm,-,N/A,,Clear,0,2014-02-20 13:51:00
6:51 AM,52.0,48.0,86,29.97,4.0,Calm,Calm,-,N/A,,Clear,0,2014-02-20 14:51:00
7:51 AM,57.9,50.0,75,29.99,6.0,East,3.5,-,N/A,,Haze,90,2014-02-20 15:51:00
8:51 AM,66.0,46.0,48,30.00,10.0,Variable,4.6,-,N/A,,Clear,0,2014-02-20 16:51:00
9:51 AM,70.0,45.0,41,30.02,9.0,Calm,Calm,-,N/A,,Clear,0,2014-02-20 17:51:00
10:51 AM,68.0,53.1,59,30.04,6.0,Variable,5.8,-,N/A,,Haze,0,2014-02-20 18:51:00
11:51 AM,71.1,54.0,55,30.02,8.0,SSW,6.9,-,N/A,,Clear,200,2014-02-20 19:51:00
12:51 PM,72.0,54.0,53,30.01,10.0,SSW,9.2,-,N/A,,Clear,210,2014-02-20 20:51:00
1:51 PM,73.9,50.0,43,29.99,10.0,WSW,3.5,-,N/A,,Clear,240,2014-02-20 21:51:00
2:51 PM,75.0,53.1,46,29.97,9.0,SSW,9.2,-,N/A,,Clear,210,2014-02-20 22:51:00
3:51 PM,66.0,54.0,65,29.97,10.0,WSW,5.8,-,N/A,,Clear,240,2014-02-20 23:51:00
4:51 PM,70.0,51.1,51,29.96,10.0,South,5.8,-,N/A,,Clear,180,2014-02-21 00:51:00
5:51 PM,64.9,51.1,61,29.96,10.0,SW,5.8,-,N/A,,Clear,220,2014-02-21 01:51:00
6:51 PM,64.9,48.9,56,29.97,10.0,Calm,Calm,-,N/A,,Clear,0,2014-02-21 02:51:00
7:51 PM,64.0,50.0,60,29.97,10.0,Calm,Calm,-,N/A,,Clear,0,2014-02-21 03:51:00
8:51 PM,63.0,48.9,60,29.97,10.0,Calm,Calm,-,N/A,,Clear,0,2014-02-21 04:51:00
9:51 PM,61.0,50.0,67,29.97,10.0,North,3.5,-,N/A,,Clear,360,2014-02-21 05:51:00
10:51 PM,63.0,39.9,43,29.97,10.0,NNE,3.5,-,N/A,,Clear,30,2014-02-21 06:51:00
11:51 PM,62.1,37.0,39,29.97,10.0,NE,3.5,-,N/A,,Clear,40,2014-02-21 07:51:00